Location: Mentone
(34.5413°N, 85.5351°W)
Time: 13:40:51
(UTC-05:00)

Vanguard 3 - All Passes

Search period start: 30 April 2017 00:00
Search period end: 10 May 2017 00:00
Orbit: 508 x 3266 km, 33.4° (Epoch: 28 April)

Date Brightness Start Highest point End Pass type
(mag) Time Alt. Az. Time Alt. Az. Time Alt. Az.
30 Apr - 07:39:12 10° SSW 07:45:37 31° SE 07:55:49 10° E daylight
30 Apr - 09:48:28 10° WSW 09:57:54 73° SSE 10:14:35 10° E daylight
30 Apr - 12:00:19 10° W 12:13:18 86° S 12:33:10 10° E daylight
30 Apr - 14:13:42 10° W 14:30:08 69° SSW 14:49:51 10° SE daylight
30 Apr - 16:29:31 10° W 16:46:03 38° SW 17:02:02 10° SSE daylight
01 May - 06:29:16 10° SSE 06:32:41 14° SE 06:36:56 10° ESE daylight
01 May - 08:35:45 10° SW 08:43:23 55° SSE 08:56:57 10° E daylight
01 May - 10:46:33 10° W 10:57:16 85° S 11:15:33 10° E daylight
01 May - 12:59:03 10° W 13:13:27 79° SSW 13:33:36 10° ESE daylight
01 May - 15:13:13 10° W 15:29:56 51° SSW 15:48:16 10° SE daylight
01 May - 17:32:10 10° W 17:44:47 21° SW 17:56:43 10° S daylight
02 May - 07:23:47 10° SSW 07:29:45 33° SE 07:39:27 10° E daylight
02 May - 09:33:17 10° WSW 09:42:00 76° SSE 09:57:48 10° E daylight
02 May - 11:44:58 10° W 11:57:05 85° S 12:16:27 10° E daylight
02 May - 13:58:02 10° W 14:13:28 64° SSW 14:33:08 10° SE daylight
02 May - 16:13:46 10° W 16:29:13 33° SW 16:45:02 10° SSE daylight
03 May - 06:13:21 10° SSE 06:16:51 15° SE 06:21:22 10° E daylight
03 May - 08:20:34 10° SW 08:27:35 59° SSE 08:40:18 10° E daylight
03 May - 10:31:22 10° W 10:41:18 86° S 10:58:45 10° E daylight
03 May - 12:43:34 10° W 12:57:01 75° SSW 13:16:51 10° ESE daylight
03 May - 14:57:30 10° W 15:13:10 46° SSW 15:31:21 10° SSE daylight
03 May - 17:17:12 10° W 17:28:05 18° SW 17:38:50 10° SSW daylight
04 May - 07:08:29 10° SSW 07:14:01 36° SE 07:23:08 10° E daylight
04 May - 09:18:11 10° WSW 09:26:13 79° SSE 09:41:03 10° E daylight
04 May - 11:29:41 10° W 11:40:56 83° S 11:59:38 10° ESE daylight
04 May - 13:42:27 10° W 13:56:52 59° SSW 14:16:14 10° SE daylight
04 May - 15:58:17 10° W 16:12:28 29° SW 16:27:43 10° SSE daylight
05 May - 05:57:38 10° S 06:01:07 17° SE 06:05:44 10° E daylight
05 May - 08:05:27 10° WSW 08:11:56 63° SSE 08:23:44 10° E daylight
05 May - 10:16:14 10° W 10:25:25 86° S 10:41:58 10° E daylight
05 May - 12:28:11 10° W 12:40:41 70° SSW 12:59:57 10° ESE daylight
05 May - 14:41:58 10° W 14:56:30 41° SSW 15:14:13 10° SSE daylight
05 May - 17:02:58 10° WSW 17:11:30 14° SW 17:20:09 10° SSW daylight
06 May - 06:53:16 10° SW 06:58:23 39° SSE 07:06:54 10° E daylight
06 May - 09:03:09 10° WSW 09:10:33 81° S 09:24:22 10° E daylight
06 May - 11:14:28 10° W 11:24:54 80° S 11:42:47 10° ESE daylight
06 May - 13:27:00 10° W 13:40:23 53° SSW 13:59:09 10° SE daylight
06 May - 15:43:05 10° W 15:55:50 25° SW 16:10:02 10° S daylight
07 May - 05:42:03 10° S 05:45:30 19° SE 05:50:06 10° E daylight
07 May - 07:50:25 10° WSW 07:56:23 67° SSE 08:07:15 10° E daylight
07 May - 10:01:10 10° W 10:09:38 85° S 10:25:11 10° E daylight
07 May - 12:12:53 10° W 12:24:27 65° SSW 12:42:56 10° SE daylight
07 May - 14:26:37 10° W 14:39:56 36° SW 14:56:47 10° SSE daylight
07 May - 16:50:35 10° WSW 16:55:02 11° SW 16:59:35 10° SSW daylight
08 May - 06:38:07 10° SW 06:42:53 43° SSE 06:50:45 10° E daylight
08 May - 08:48:09 10° W 08:55:00 83° S 09:07:45 10° E daylight
08 May - 10:59:19 10° W 11:08:56 75° SSW 11:25:52 10° ESE daylight
08 May - 13:11:41 10° W 13:24:00 48° SSW 13:41:52 10° SE daylight
08 May - 15:28:18 10° W 15:39:19 21° SW 15:51:53 10° S daylight
09 May - 05:26:35 10° SSW 05:29:58 21° SE 05:34:30 10° E daylight
09 May - 07:35:26 10° WSW 07:40:56 71° SSE 07:50:52 10° E daylight
09 May - 09:46:07 10° W 09:53:56 83° S 10:08:26 10° E daylight
09 May - 11:57:40 10° W 12:08:19 59° SSW 12:25:47 10° SE daylight
09 May - 14:11:31 10° W 14:23:31 31° SW 14:39:05 10° SSE daylight
